www.pogodaiklimat.ru

Погода и климат >> Архив погоды >> Австралия >> Западная Австралия >> Порт-Хедленд Apardoo


ПОГОДА в Порт-Хедленде Apardoo

  • Прогноз погоды в Порт-Хедленде Apardoo
  • Монитор погоды в Порт-Хедленде Apardoo

АРХИВ ПОГОДЫ в Порт-Хедленде Apardoo

Время (UTC), дата Ветер
(напр.,м/с)
 
Видим.   Явления Облачность Т
(С)
Тd
(С)
f
(%)
Тe
(С)
Тes
(С)
Комфортность P
(гПа)
Po
(гПа)
Тmin
(С)
Tmax
(С)
R
(мм)
R24
(мм)
S
(см)
01 11.07 ЮВ 7 н/о 4/0
[]
+23.8 +1.4 23 +23 +24 комфорт 1022.8 1021.9 +15.5
03 11.07 В 7 н/о н/о +28.9 -0.3 15 +26 +26 жарко 1021.8 1020.9
04 11.07 В 7 н/о н/о +29.1 -1.1 14 +26 +26 жарко 1020.8 1019.9
06 11.07 В 7 н/о н/о +29.4 -1.9 13 +26 +26 жарко 1019.3 1018.4
07 11.07 В 6 н/о н/о +29.5 -1.8 13 +26 +26 жарко 1019.1 1018.2
09 11.07 В 5 н/о н/о +27.7 -1.3 15 +25 +25 комфорт 1020.2 1019.3
10 11.07 ЮВ 4 н/о 1/0
[]
+24.9 +0.4 20 +23 +23 комфорт 1021.0 1020.1
12 11.07 ЮВ 4 н/о н/о +19.9 +2.3 31 +20 +20 1021.5 1020.6
13 11.07 ЮВ 4 н/о 10/0
[]
+20.3 +2.6 31 +21 +21 комфорт 1021.5 1020.6 +30.5
15 11.07 ЮВ 5 н/о н/о +22.7 +0.5 23 +22 +22 комфорт 1020.4 1019.5
16 11.07 ЮВ 5 н/о 9/0
[]
+22.6 +0.4 23 +22 +22 комфорт 1020.6 1019.7
18 11.07 Ю 3 н/о н/о +20.2 +2.5 31 +21 +21 комфорт 1021.1 1020.2
19 11.07 Ю 4 н/о 10/0
[]
+19.9 +1.8 30 +20 +20 1021.0 1020.1
21 11.07 ЮВ 3 н/о н/о +17.9 +1.8 34 +18 +18 1021.0 1020.1
22 11.07 Ю 3 н/о 9/0
[]
+17.0 +2.2 37 +17 +17 1021.4 1020.5
00 12.07 Ю 3 н/о н/о +19.0 +2.8 34 +20 +20 1022.8 1021.9
01 12.07 ЮВ 7 н/о 10/0
[]
+25.1 -0.1 19 +24 +24 комфорт 1023.0 1022.1 +16.4
03 12.07 В 10 н/о н/о +29.0 -2.2 13 +26 +26 жарко 1021.6 1020.7
04 12.07 В 8 н/о н/о +30.2 -2.3 12 +27 +27 жарко 1020.7 1019.8
06 12.07 В 7 н/о н/о +30.9 -3.0 11 +27 +27 жарко 1018.8 1017.9
07 12.07 ЮВ 7 н/о н/о +30.6 -3.2 11 +27 +27 жарко 1018.5 1017.6
09 12.07 ЮВ 5 н/о н/о +29.3 -3.0 12 +26 +26 жарко 1018.8 1017.9
10 12.07 СЗ 2 н/о н/о +22.4 +5.8 34 +23 +23 комфорт 1019.3 1018.4
12 12.07 ЮЗ 3 н/о н/о +18.9 +8.6 51 +20 +20 1020.7 1019.8
13 12.07 ЮЗ 2 н/о н/о +17.2 +7.0 51 +18 +18 1021.1 1020.2 +31.6
15 12.07 ЮВ 2 н/о н/о +18.1 +2.0 34 +19 +19 1021.0 1020.1
16 12.07 ЮВ 4 н/о н/о +15.9 +1.6 38 +15 +15 1020.7 1019.8
18 12.07 Ю 5 н/о н/о +14.5 +0.7 39 +13 +13 1020.5 1019.6
19 12.07 Ю 5 н/о н/о +14.6 +0.1 37 +13 +13 1020.5 1019.6
21 12.07 ЮВ 4 н/о н/о +13.1 +0.2 41 +12 +12 1020.8 1019.9
22 12.07 ЮВ 4 н/о н/о +13.3 +0.3 41 +12 +12 1021.3 1020.4
00 13.07 ЮВ 7 н/о н/о +21.1 -4.1 18 +20 +20 1022.8 1021.9
01 13.07 ЮВ 9 н/о н/о +23.7 -4.4 15 +22 +22 комфорт 1023.2 1022.3 +12.7
03 13.07 В 9 н/о н/о +27.3 -4.6 12 +24 +24 комфорт 1022.7 1021.8
04 13.07 В 10 н/о н/о +29.1 -5.6 10 +26 +26 жарко 1021.6 1020.7
06 13.07 В 9 н/о н/о +29.8 -6.4 9 +26 +26 жарко 1019.4 1018.5
07 13.07 В 9 н/о н/о +30.2 -6.1 9 +26 +26 жарко 1018.8 1017.9
09 13.07 В 7 н/о н/о +28.4 -6.1 10 +25 +25 комфорт 1019.1 1018.2
10 13.07 В 4 н/о н/о +24.9 -4.4 14 +23 +23 комфорт 1019.7 1018.8
12 13.07 ЮВ 5 н/о н/о +20.4 -2.0 22 +20 +20 1020.9 1020.0
13 13.07 ЮВ 5 н/о н/о +17.3 -1.9 27 +17 +17 1021.3 1020.4 +30.9
15 13.07 ЮВ 4 н/о н/о +18.7 -2.8 23 +19 +19 1021.6 1020.7
18 13.07 Ю 5 н/о н/о +15.0 -2.4 30 +14 +14 1021.4 1020.5
19 13.07 ЮВ 5 н/о н/о +14.4 -2.5 31 +13 +13 1021.4 1020.5
21 13.07 ЮВ 6 н/о н/о +17.5 -1.7 27 +17 +17 1021.8 1020.9
22 13.07 ЮВ 6 н/о н/о +17.3 -0.9 29 +17 +17 1022.4 1021.5
00 14.07 ЮВ 7 н/о н/о +19.2 -0.2 27 +19 +19 1023.7 1022.8
01 14.07 В 11 н/о н/о +21.6 +0.2 24 +21 +21 комфорт 1023.9 1023.0 +14.2
03 14.07 В 10 н/о н/о +25.1 -0.1 19 +24 +24 комфорт 1023.2 1022.3
04 14.07 В 9 н/о н/о +26.8 -1.1 16 +25 +25 комфорт 1021.8 1020.9
06 14.07 В 8 н/о н/о +28.3 -1.7 14 +26 +26 жарко 1019.9 1019.0
07 14.07 В 7 н/о н/о +28.8 -3.4 12 +26 +26 жарко 1019.4 1018.5
09 14.07 ЮВ 5 н/о н/о +27.2 -2.6 14 +25 +25 комфорт 1019.4 1018.5
10 14.07 ЮВ 4 н/о н/о +23.9 -1.1 19 +23 +23 комфорт 1019.5 1018.6
12 14.07 ЮВ 4 н/о н/о +18.0 +0.6 31 +18 +18 1020.8 1019.9
13 14.07 ЮВ 4 н/о н/о +18.4 +0.1 29 +18 +18 1021.1 1020.2 +29.2
15 14.07 ЮВ 4 н/о н/о +14.7 +0.2 37 +14 +14 1021.8 1020.9
16 14.07 ЮВ 5 н/о н/о +17.2 -0.5 30 +17 +17 1021.7 1020.8
18 14.07 Ю 4 н/о н/о +13.2 +0.3 41 +12 +12 1021.8 1020.9
19 14.07 Ю 4 н/о н/о +12.3 +1.0 46 +11 +11 1021.8 1020.9
21 14.07 ЮВ 5 н/о н/о +12.5 +1.2 46 +11 +11 1022.1 1021.2
22 14.07 ЮВ 4 н/о н/о +15.1 -0.2 35 +14 +14 1022.6 1021.7
00 15.07 ЮВ 5 н/о н/о +17.8 -0.5 29 +17 +17 1023.6 1022.7
01 15.07 ЮВ 9 н/о н/о +21.2 -0.7 23 +21 +21 комфорт 1023.6 1022.7 +11.2
03 15.07 В 10 н/о н/о +24.1 -2.4 17 +22 +22 комфорт 1022.1 1021.2
04 15.07 В 9 н/о н/о +25.5 -3.0 15 +23 +23 комфорт 1021.0 1020.1
06 15.07 В 7 н/о н/о +26.9 -3.8 13 +24 +24 комфорт 1018.8 1017.9
07 15.07 В 7 н/о н/о +26.9 -4.9 12 +24 +24 комфорт 1018.3 1017.4
09 15.07 ЮВ 5 н/о н/о +25.8 -5.7 12 +23 +23 комфорт 1018.1 1017.2
10 15.07 ЮВ 4 н/о н/о +22.6 -4.5 16 +21 +21 комфорт 1018.5 1017.6
12 15.07 ЮВ 4 н/о н/о +17.3 -2.4 26 +17 +17 1020.2 1019.3
13 15.07 ЮВ 4 н/о н/о +15.3 -2.2 30 +15 +15 1020.6 1019.7 +27.8
15 15.07 ЮВ 5 н/о н/о +13.5 -2.0 34 +12 +12 1021.2 1020.3
16 15.07 ЮВ 5 н/о н/о +13.2 -2.3 34 +12 +12 1021.3 1020.4
18 15.07 Ю 4 н/о н/о +11.8 -2.0 38 +10 +10 1021.5 1020.6
19 15.07 Ю 4 н/о н/о +10.8 -1.9 41 +9 +9 1021.4 1020.5
21 15.07 Ю 3 н/о н/о +9.9 -0.6 48 +8 +8 1021.3 1020.4
22 15.07 Ю 4 н/о н/о +9.9 -0.6 48 +8 +8 1021.5 1020.6
00 16.07 ЮВ 4 н/о н/о +15.5 -0.3 34 +15 +15 1022.5 1021.6
01 16.07 ЮВ 8 н/о н/о +20.3 -3.4 20 +20 +20 1022.8 1021.9 +8.6
03 16.07 В 9 н/о н/о +24.9 -5.4 13 +23 +23 комфорт 1021.6 1020.7
04 16.07 В 9 н/о н/о +26.3 -4.3 13 +24 +24 комфорт 1020.4 1019.5
06 16.07 В 8 н/о н/о +27.3 -6.9 10 +24 +24 комфорт 1018.7 1017.8
07 16.07 В 6 н/о н/о +27.4 -6.9 10 +24 +24 комфорт 1018.2 1017.3
09 16.07 С 4 н/о н/о +23.3 +5.2 31 +23 +23 комфорт 1018.2 1017.3
10 16.07 С 3 н/о н/о +18.8 +6.3 44 +19 +19 1018.7 1017.8
12 16.07 ЮЗ 2 н/о н/о +16.3 +8.0 58 +17 +17 1019.9 1019.0
13 16.07 Ю 3 н/о н/о +15.4 +6.9 57 +15 +15 1020.1 1019.2 +28.3
15 16.07 Ю 5 н/о н/о +13.3 -1.4 36 +12 +12 1019.8 1018.9
16 16.07 ЮВ 4 н/о н/о +12.3 -1.6 38 +11 +11 1019.6 1018.7
18 16.07 ЮВ 5 н/о н/о +11.6 -2.6 37 +10 +10 1018.9 1018.0
19 16.07 ЮВ 5 н/о н/о +10.7 -2.3 40 +9 +9 1018.7 1017.8
21 16.07 ЮВ 4 н/о н/о +10.0 -2.3 42 +8 +8 1019.1 1018.2
22 16.07 ЮВ 4 н/о н/о +9.2 -2.1 45 +7 +7 1019.6 1018.7
00 17.07 ЮВ 5 н/о н/о +17.9 -1.9 26 +17 +17 1020.8 1019.9
01 17.07 В 9 н/о н/о +21.2 -3.3 19 +20 +20 1020.7 1019.8 +9.1
03 17.07 В 9 н/о н/о +25.5 -4.9 13 +23 +23 комфорт 1019.8 1018.9
04 17.07 В 9 н/о н/о +26.1 -5.5 12 +23 +23 комфорт 1018.7 1017.8
06 17.07 В 6 н/о н/о +27.8 -6.6 10 +25 +25 комфорт 1016.6 1015.7
07 17.07 В 6 н/о н/о +28.3 -9.1 8 +25 +25 комфорт 1015.9 1015.0
09 17.07 С 4 н/о н/о +23.8 +4.7 29 +24 +24 комфорт 1015.7 1014.8
10 17.07 С 3 н/о н/о +18.4 +5.3 42 +19 +19 1016.1 1015.2
12 17.07 СЗ 2 н/о н/о +16.8 +6.3 50 +17 +17 1017.3 1016.4
13 17.07 СЗ 2 н/о н/о +14.5 +6.3 58 +14 +14 1017.6 1016.7 +29.1
15 17.07 Ю 3 н/о н/о +13.7 +5.8 59 +13 +13 1017.5 1016.6
16 17.07 Ю 2 н/о н/о +12.1 +4.8 61 +11 +11 1017.4 1016.5
18 17.07 Ю 2 н/о н/о +11.1 -0.4 45 +10 +10 1016.9 1016.0
19 17.07 Ю 2 н/о н/о +10.2 -1.8 43 +9 +9 1017.0 1016.1
21 17.07 ЮВ 5 н/о н/о +10.1 -2.5 41 +8 +8 1017.2 1016.3
22 17.07 ЮВ 3 н/о н/о +9.8 -2.5 42 +8 +8 1017.7 1016.8
00 18.07 ЮВ 4 н/о н/о +18.0 -3.4 23 +18 +18 1018.5 1017.6

 

Местоположение метеостанции Порт-Хедленд Apardoo (Западная Австралия, Австралия): широта -20.36 долгота 118.63 высота над уровнем моря 9 м.

В архиве по умолчанию представлена погода в Порт-Хедленде Apardoo за последнюю неделю. Архивные данные за месяц целиком и за предыдущие месяцы, начиная с января 2011 года, Вы можете получить, выбрав интересующий диапазон дат из раскрывающегося списка и нажав кнопку "Ввод!".


*Определитесь, кто Вы:
робот инопланетянин человек

Внимание! Время в таблицах - всемирное. Для получения местного времени необходимо прибавить поправку, которая равна 8 ч.

Смотрите также архив погоды в соседних городах и на ближайших метеорологических станциях:

Погода в Марбл-баре (Западная Австралия, Австралия) (148 км)
Погода в Роборн аэропорту (Западная Австралия, Австралия) (160 км)
Погода в Каррате (Западная Австралия, Австралия) (198 км)
Погода в Мандоре (Западная Австралия, Австралия) (242 км)
Погода в Марди (Западная Австралия, Австралия) (291 км)
Погода в Роули Шоалс (Западная Австралия, Австралия) (317 км)
Погода на Острове Варанас (Западная Австралия, Австралия) (320 км)
Погода в Параберду (Западная Австралия, Австралия) (325 км)
Погода в Барроу-Айленд (Западная Австралия, Австралия) (341 км)
Погода в Ньюмане (Западная Австралия, Австралия) (360 км)

Пояснения к столбцам:

Ветер - указаны скорость ветра в м/с - средняя за 10 мин, порывы в срок и между сроками (в фигурных скобках) и направление, откуда дует ветер: С - северный, СВ - северо-восточный, В - восточный, ЮВ - юго-восточный, Ю - южный, ЮЗ - юго-западный, З - западный, СЗ - северо-западный.
Видимость - горизонтальная дальность видимости в метрах или километрах. При видимости от 1 до 10 км при отсутствии осадков обычно наблюдается дымка, при ухудшении видимости до 1 км и менее - туман. В сухую погоду видимость может ухудшаться дымом, пылью или мглою.
Явления - указаны атмосферные явления, наблюдавшиеся в срок или в последний час перед сроком; фигурными скобками обозначены явления, наблюдавшиеся между сроками (за 1-3 часа до срока); квадратными скобками обозначены град или гололедные отложения с указанием их диаметра в мм.
Облачность - указаны через наклонную черту общая и нижняя облачность в баллах и высота нижней границы облаков в метрах; квадратными скобками обозначены формы облаков: Ci - перистые, Cs - перисто-слоистые, Cc - перисто-кучевые, Ac - высококучевые, As - высокослоистые, Sc - слоисто-кучевые, Ns - слоисто-дождевые, Cu - кучевые, Cb - кучево-дождевые. Подробнее классификацию облаков см. в Атласе облаков (PDF).
T - Температура воздуха - температура, измеренная на высоте 2 м над землей.
Td - Температура точки росы - температура, при понижении до которой содержащийся в воздухе водяной пар достигнет насыщения.
f - Относительная влажность воздуха - влажноcть воздуха, измеренная на высоте 2 м над землей.
Te - Эффективная температура - температура, которую ощущает одетый по сезону человек в тени. Характеристика душности погоды. При расчете учитывается влияние влажности воздуха и скорости ветра на теплоощущения человека.
Tes - Эффективная температура на солнце - температура, которую ощущает человек, с поправкой на солнечный нагрев. Характеристика знойности погоды. Зависит от высоты солнца над горизонтом, облачности и скорости ветра. Ночью, в пасмурную погоду, а также при ветре 12 м/с и более поправка равна нулю.
P - Атмосферное давление - приведенное к уровню моря атмосферное давление.
Po - Атмосферное давление - измеренное на уровне метеостанции атмосферное давление.
Tmin - Минимальная температура - минимум температуры воздуха на высоте 2 м над землей.
Tmax - Максимальная температура - максимум температуры воздуха на высоте 2 м над землей.
R - Количество осадков - Количество выпавших осадков за период времени, мм. При наведении курсора мыши на число - период времени, за который выпало указанное количество осадков.
R24 - Количество осадков - Количество выпавших осадков за 24 часа, мм.
S - Снежный покров - Высота снежного покрова, см. При наведении курсора мыши на число - состояние снежного покрова и степень покрытия местности в баллах.